Вернуться в каталог

ZY-1 02E

АктивенНаукаSSO
NORAD 50465·PAYLOAD·🇨🇳 China

Запущен Dec 26, 2021 с Taiyuan Satellite Launch Center

Loading…

Ближайшие Пролёты (ближайшие 24 часа)

TLE

СвежийSource: Space-Track

Эпоха: Sep 14, 2026, 22:20 UTC

1 50465U 21131A   26257.93075133  .00000024  00000-0  23343-4 0  9996
2 50465  98.4374 333.0851 0001284 136.9666 223.1620 14.35396149247297

Отслеживайте ZY-1 02E в реальном времени с AllMySat

Download on the App Store